Location: Pedholt
(56.0260°N, 10.2097°E)
Time: 03:35:34
(UTC+00:00)

Tiros 1 - All Passes

Search period start: 01 August 2021 00:00
Search period end: 11 August 2021 00:00
Orbit: 630 x 664 km, 48.4° (Epoch: 31 July)

Date Brightness Start Highest point End Pass type
(mag) Time Alt. Az. Time Alt. Az. Time Alt. Az.
01 Aug - 18:07:43 10° SSW 18:11:27 23° SSE 18:15:10 10° ESE daylight
01 Aug - 19:48:36 10° WSW 19:52:51 33° S 19:57:04 10° ESE daylight
01 Aug - 21:30:23 10° WSW 21:34:18 26° SSW 21:38:10 10° SE visible
01 Aug - 23:13:56 10° SW 23:15:21 11° SW 23:16:45 10° SSW visible
02 Aug - 16:53:02 10° S 16:55:47 15° SSE 16:58:32 10° ESE daylight
02 Aug - 18:32:52 10° SW 18:37:00 29° SSE 18:41:05 10° ESE daylight
02 Aug - 20:14:16 10° WSW 20:18:29 32° S 20:22:39 10° SE visible
02 Aug - 21:56:30 10° WSW 21:59:48 19° SSW 22:03:03 10° SSE visible
03 Aug - 17:17:32 10° SSW 17:21:13 22° SSE 17:24:53 10° ESE daylight
03 Aug - 18:58:21 10° WSW 19:02:37 33° S 19:06:50 10° ESE daylight
03 Aug - 20:40:06 10° WSW 20:44:04 27° SSW 20:48:00 10° SE visible
03 Aug - 22:23:22 10° WSW 22:25:09 12° SW 22:26:57 10° SSW visible
04 Aug - 16:02:58 10° S 16:05:35 15° SSE 16:08:11 10° ESE daylight
04 Aug - 17:42:39 10° SW 17:46:46 29° SSE 17:50:51 10° ESE daylight
04 Aug - 19:24:01 10° WSW 19:28:15 32° S 19:32:27 10° SE daylight
04 Aug - 21:06:10 10° WSW 21:09:35 20° SSW 21:12:57 10° SSE visible
05 Aug - 16:27:22 10° SSW 16:31:00 22° SSE 16:34:37 10° ESE daylight
05 Aug - 18:08:06 10° WSW 18:12:23 33° S 18:16:37 10° ESE daylight
05 Aug - 19:49:50 10° WSW 19:53:51 27° SSW 19:57:50 10° SE daylight
05 Aug - 21:32:52 10° WSW 21:34:58 13° SW 21:37:02 10° S visible
06 Aug - 15:12:57 10° S 15:15:22 14° SE 15:17:48 10° ESE daylight
06 Aug - 16:52:27 10° SW 16:56:32 28° SSE 17:00:36 10° ESE daylight
06 Aug - 18:33:46 10° WSW 18:38:01 32° S 18:42:14 10° ESE daylight
06 Aug - 20:15:51 10° WSW 20:19:22 21° SSW 20:22:51 10° SSE visible
07 Aug - 15:37:13 10° SSW 15:40:47 21° SSE 15:44:20 10° ESE daylight
07 Aug - 17:17:52 10° WSW 17:22:09 33° S 17:26:23 10° ESE daylight
07 Aug - 18:59:33 10° WSW 19:03:37 28° SSW 19:07:40 10° SE daylight
07 Aug - 20:42:25 10° WSW 20:44:46 14° SW 20:47:05 10° S visible
08 Aug - 14:22:56 10° S 14:25:10 13° SE 14:27:24 10° ESE daylight
08 Aug - 16:02:14 10° SW 16:06:18 28° SSE 16:10:22 10° ESE daylight
08 Aug - 17:43:30 10° WSW 17:47:47 33° S 17:52:02 10° ESE daylight
08 Aug - 19:25:33 10° WSW 19:29:09 21° SSW 19:32:44 10° SSE daylight
09 Aug - 14:47:04 10° SSW 14:50:34 20° SSE 14:54:03 10° ESE daylight
09 Aug - 16:27:38 10° WSW 16:31:54 32° S 16:36:09 10° ESE daylight
09 Aug - 18:09:16 10° WSW 18:13:23 29° SSW 18:17:28 10° SE daylight
09 Aug - 19:52:01 10° WSW 19:54:34 14° SSW 19:57:06 10° S visible
10 Aug - 13:32:58 10° SSE 13:34:58 12° SE 13:36:58 10° ESE daylight
10 Aug - 15:12:02 10° SW 15:16:04 27° SSE 15:20:06 10° ESE daylight
10 Aug - 16:53:15 10° WSW 16:57:32 33° S 17:01:48 10° ESE daylight
10 Aug - 18:35:14 10° WSW 18:38:56 22° SSW 18:42:36 10° SSE daylight
